Time,TemperatureF,DewpointF,PressureIn,WindDirection,WindDirectionDegrees,WindSpeedMPH,WindSpeedGustMPH,Humidity,HourlyPrecipIn,Conditions,Clouds,dailyrainin,SoftwareType,DateUTC
2013-02-13 00:02:00,26.0,20.0,29.98,South,179,0.0,-999.0,79,-99.99,,,-99.99,,2013-02-13 06:02:00,
2013-02-13 00:11:00,27.0,22.0,29.98,South,179,0.0,-999.0,81,-99.99,,,-99.99,,2013-02-13 06:11:00,
2013-02-13 00:21:00,27.0,22.0,29.98,South,179,0.0,-999.0,81,-99.99,,,-99.99,,2013-02-13 06:21:00,
2013-02-13 00:32:00,27.0,22.0,29.98,South,179,0.0,-999.0,80,-99.99,,,-99.99,,2013-02-13 06:32:00,
2013-02-13 00:42:00,26.0,21.0,29.98,South,179,0.0,-999.0,81,-99.99,,,-99.99,,2013-02-13 06:42:00,
2013-02-13 00:52:00,26.0,21.0,29.98,South,179,0.0,-999.0,81,-99.99,,,-99.99,,2013-02-13 06:52:00,
2013-02-13 01:02:00,26.0,21.0,29.97,South,179,0.0,-999.0,81,-99.99,,,-99.99,,2013-02-13 07:02:00,
2013-02-13 01:11:00,26.0,22.0,29.97,South,179,0.0,-999.0,83,-99.99,,,-99.99,,2013-02-13 07:11:00,
2013-02-13 01:21:00,26.0,22.0,29.97,South,179,0.0,-999.0,83,-99.99,,,-99.99,,2013-02-13 07:21:00,
2013-02-13 01:31:00,26.0,22.0,29.96,South,179,0.0,-999.0,83,-99.99,,,-99.99,,2013-02-13 07:31:00,
2013-02-13 01:41:00,26.0,22.0,29.96,South,179,0.0,-999.0,83,-99.99,,,-99.99,,2013-02-13 07:41:00,
2013-02-13 01:52:00,27.0,23.0,29.96,South,179,0.0,-999.0,83,-99.99,,,-99.99,,2013-02-13 07:52:00,
2013-02-13 02:01:00,27.0,23.0,29.96,South,179,0.0,-999.0,83,-99.99,,,-99.99,,2013-02-13 08:01:00,
2013-02-13 02:11:00,27.0,23.0,29.96,South,179,0.0,-999.0,83,-99.99,,,-99.99,,2013-02-13 08:11:00,
2013-02-13 02:21:00,26.0,22.0,29.96,South,179,0.0,-999.0,83,-99.99,,,-99.99,,2013-02-13 08:21:00,
2013-02-13 02:32:00,26.0,22.0,29.95,South,179,0.0,-999.0,83,-99.99,,,-99.99,,2013-02-13 08:32:00,
2013-02-13 02:43:00,26.0,22.0,29.95,South,179,0.0,-999.0,83,-99.99,,,-99.99,,2013-02-13 08:43:00,
2013-02-13 02:52:00,25.0,21.0,29.95,South,179,0.0,-999.0,83,-99.99,,,-99.99,,2013-02-13 08:52:00,
2013-02-13 03:01:00,24.0,20.0,29.94,South,179,0.0,-999.0,83,-99.99,,,-99.99,,2013-02-13 09:01:00,
2013-02-13 03:11:00,24.0,20.0,29.94,South,179,0.0,-999.0,83,-99.99,,,-99.99,,2013-02-13 09:11:00,
2013-02-13 03:21:00,25.0,21.0,29.94,South,179,0.0,-999.0,84,-99.99,,,-99.99,,2013-02-13 09:21:00,
2013-02-13 03:31:00,25.0,21.0,29.94,South,179,0.0,-999.0,84,-99.99,,,-99.99,,2013-02-13 09:31:00,
2013-02-13 03:41:00,24.0,20.0,29.94,South,179,0.0,-999.0,84,-99.99,,,-99.99,,2013-02-13 09:41:00,
2013-02-13 03:52:00,24.0,20.0,29.94,South,179,0.0,-999.0,84,-99.99,,,-99.99,,2013-02-13 09:52:00,
2013-02-13 04:01:00,24.0,20.0,29.94,South,179,0.0,-999.0,85,-99.99,,,-99.99,,2013-02-13 10:01:00,
2013-02-13 04:11:00,23.0,19.0,29.93,South,179,0.0,-999.0,85,-99.99,,,-99.99,,2013-02-13 10:11:00,
2013-02-13 04:21:00,23.0,19.0,29.93,South,179,0.0,-999.0,85,-99.99,,,-99.99,,2013-02-13 10:21:00,
2013-02-13 04:32:00,23.0,19.0,29.93,South,179,0.0,-999.0,86,-99.99,,,-99.99,,2013-02-13 10:32:00,
2013-02-13 04:42:00,22.0,18.0,29.93,South,179,0.0,-999.0,86,-99.99,,,-99.99,,2013-02-13 10:42:00,
2013-02-13 04:52:00,22.0,18.0,29.93,South,179,0.0,-999.0,86,-99.99,,,-99.99,,2013-02-13 10:52:00,
2013-02-13 05:01:00,22.0,19.0,29.93,South,179,0.0,-999.0,87,-99.99,,,-99.99,,2013-02-13 11:01:00,
2013-02-13 05:11:00,22.0,19.0,29.93,South,179,0.0,-999.0,87,-99.99,,,-99.99,,2013-02-13 11:11:00,
2013-02-13 05:22:00,22.0,19.0,29.92,South,179,0.0,-999.0,87,-99.99,,,-99.99,,2013-02-13 11:22:00,
2013-02-13 05:32:00,22.0,19.0,29.92,South,179,0.0,-999.0,88,-99.99,,,-99.99,,2013-02-13 11:32:00,
2013-02-13 05:42:00,22.0,19.0,29.92,South,179,0.0,-999.0,88,-99.99,,,-99.99,,2013-02-13 11:42:00,
2013-02-13 05:52:00,22.0,19.0,29.92,South,179,0.0,-999.0,88,-99.99,,,-99.99,,2013-02-13 11:52:00,
2013-02-13 06:02:00,22.0,19.0,29.93,South,179,0.0,-999.0,88,-99.99,,,-99.99,,2013-02-13 12:02:00,
2013-02-13 06:11:00,22.0,19.0,29.93,South,179,0.0,-999.0,88,-99.99,,,-99.99,,2013-02-13 12:11:00,
2013-02-13 06:22:00,22.0,19.0,29.93,South,179,0.0,-999.0,88,-99.99,,,-99.99,,2013-02-13 12:22:00,
2013-02-13 06:32:00,22.0,19.0,29.93,South,179,0.0,-999.0,89,-99.99,,,-99.99,,2013-02-13 12:32:00,
2013-02-13 06:42:00,22.0,19.0,29.92,South,179,0.0,-999.0,89,-99.99,,,-99.99,,2013-02-13 12:42:00,
2013-02-13 06:52:00,22.0,19.0,29.92,South,179,0.0,-999.0,89,-99.99,,,-99.99,,2013-02-13 12:52:00,
2013-02-13 07:02:00,22.0,19.0,29.92,South,179,0.0,-999.0,89,-99.99,,,-99.99,,2013-02-13 13:02:00,
2013-02-13 07:11:00,22.0,19.0,29.92,South,179,0.0,-999.0,89,-99.99,,,-99.99,,2013-02-13 13:11:00,
2013-02-13 07:21:00,21.0,18.0,29.92,South,179,0.0,-999.0,89,-99.99,,,-99.99,,2013-02-13 13:21:00,
2013-02-13 07:32:00,21.0,18.0,29.92,South,179,0.0,-999.0,89,-99.99,,,-99.99,,2013-02-13 13:32:00,
2013-02-13 07:41:00,21.0,19.0,29.93,South,179,0.0,-999.0,90,-99.99,,,-99.99,,2013-02-13 13:41:00,
2013-02-13 07:52:00,21.0,19.0,29.93,South,179,0.0,-999.0,90,-99.99,,,-99.99,,2013-02-13 13:52:00,
2013-02-13 08:01:00,21.0,19.0,29.93,South,179,0.0,-999.0,90,-99.99,,,-99.99,,2013-02-13 14:01:00,
2013-02-13 08:11:00,21.0,19.0,29.93,South,179,0.0,-999.0,90,-99.99,,,-99.99,,2013-02-13 14:11:00,
2013-02-13 08:21:00,22.0,20.0,29.93,South,179,0.0,-999.0,91,-99.99,,,-99.99,,2013-02-13 14:21:00,
2013-02-13 08:31:00,24.0,22.0,29.93,South,179,0.0,-999.0,91,-99.99,,,-99.99,,2013-02-13 14:31:00,
2013-02-13 08:41:00,27.0,25.0,29.93,South,179,0.0,-999.0,91,-99.99,,,-99.99,,2013-02-13 14:41:00,
2013-02-13 08:52:00,27.0,25.0,29.93,South,179,0.0,-999.0,91,-99.99,,,-99.99,,2013-02-13 14:52:00,
2013-02-13 09:01:00,29.0,26.0,29.93,South,179,0.0,-999.0,90,-99.99,,,-99.99,,2013-02-13 15:01:00,
2013-02-13 09:11:00,30.0,26.0,29.93,South,179,2.0,-999.0,86,-99.99,,,-99.99,,2013-02-13 15:11:00,
2013-02-13 09:21:00,30.0,26.0,29.93,South,179,2.0,-999.0,86,-99.99,,,-99.99,,2013-02-13 15:21:00,
2013-02-13 09:32:00,32.0,27.0,29.93,South,179,0.0,-999.0,81,-99.99,,,-99.99,,2013-02-13 15:32:00,
2013-02-13 09:42:00,32.0,27.0,29.93,South,179,0.0,-999.0,81,-99.99,,,-99.99,,2013-02-13 15:42:00,
2013-02-13 09:52:00,34.0,27.0,29.93,South,179,0.0,-999.0,76,-99.99,,,-99.99,,2013-02-13 15:52:00,
2013-02-13 10:01:00,34.0,27.0,29.93,South,179,0.0,-999.0,76,-99.99,,,-99.99,,2013-02-13 16:01:00,
2013-02-13 10:11:00,36.0,27.0,29.93,South,179,0.0,-999.0,69,-99.99,,,-99.99,,2013-02-13 16:11:00,
2013-02-13 10:21:00,36.0,27.0,29.93,South,179,0.0,-999.0,69,-99.99,,,-99.99,,2013-02-13 16:21:00,
2013-02-13 10:31:00,39.0,29.0,29.93,South,179,2.0,-999.0,67,-99.99,,,-99.99,,2013-02-13 16:31:00,
2013-02-13 10:42:00,39.0,29.0,29.93,South,179,2.0,-999.0,67,-99.99,,,-99.99,,2013-02-13 16:42:00,
2013-02-13 10:52:00,40.0,29.0,29.92,South,179,0.0,-999.0,64,-99.99,,,-99.99,,2013-02-13 16:52:00,
2013-02-13 11:01:00,42.0,30.0,29.92,South,179,0.0,-999.0,62,-99.99,,,-99.99,,2013-02-13 17:01:00,
2013-02-13 11:11:00,42.0,30.0,29.92,South,179,0.0,-999.0,62,-99.99,,,-99.99,,2013-02-13 17:11:00,
2013-02-13 11:21:00,42.0,30.0,29.92,South,179,0.0,-999.0,62,-99.99,,,-99.99,,2013-02-13 17:21:00,
2013-02-13 11:31:00,46.0,31.0,29.92,South,179,1.0,-999.0,55,-99.99,,,-99.99,,2013-02-13 17:31:00,
2013-02-13 11:41:00,46.0,31.0,29.92,South,179,1.0,-999.0,55,-99.99,,,-99.99,,2013-02-13 17:41:00,
2013-02-13 11:52:00,47.0,31.0,29.91,South,179,1.0,-999.0,53,-99.99,,,-99.99,,2013-02-13 17:52:00,
2013-02-13 12:01:00,49.0,31.0,29.91,South,178,0.0,-999.0,49,-99.99,,,-99.99,,2013-02-13 18:01:00,
2013-02-13 12:11:00,49.0,31.0,29.91,South,178,0.0,-999.0,49,-99.99,,,-99.99,,2013-02-13 18:11:00,
2013-02-13 12:22:00,51.0,30.0,29.90,North,355,0.0,-999.0,44,-99.99,,,-99.99,,2013-02-13 18:22:00,
2013-02-13 12:32:00,52.0,28.0,29.89,NNW,344,1.0,-999.0,40,-99.99,,,-99.99,,2013-02-13 18:32:00,
2013-02-13 12:41:00,52.0,28.0,29.89,NNW,344,1.0,-999.0,40,-99.99,,,-99.99,,2013-02-13 18:41:00,
2013-02-13 12:52:00,52.0,28.0,29.88,North,355,1.0,-999.0,40,-99.99,,,-99.99,,2013-02-13 18:52:00,
2013-02-13 13:01:00,53.0,28.0,29.87,SSW,204,0.0,-999.0,38,-99.99,,,-99.99,,2013-02-13 19:01:00,
2013-02-13 13:11:00,54.0,28.0,29.86,South,171,0.0,-999.0,37,-99.99,,,-99.99,,2013-02-13 19:11:00,
2013-02-13 13:21:00,54.0,28.0,29.86,South,171,0.0,-999.0,37,-99.99,,,-99.99,,2013-02-13 19:21:00,
2013-02-13 13:31:00,55.0,27.0,29.85,SSW,203,1.0,-999.0,34,-99.99,,,-99.99,,2013-02-13 19:31:00,
2013-02-13 13:41:00,55.0,27.0,29.85,SSW,203,1.0,-999.0,34,-99.99,,,-99.99,,2013-02-13 19:41:00,
2013-02-13 13:52:00,55.0,27.0,29.84,SSW,193,4.0,-999.0,34,-99.99,,,-99.99,,2013-02-13 19:52:00,
2013-02-13 14:02:00,55.0,28.0,29.84,South,178,3.0,-999.0,35,-99.99,,,-99.99,,2013-02-13 20:02:00,
2013-02-13 14:11:00,55.0,28.0,29.83,South,187,3.0,-999.0,35,-99.99,,,-99.99,,2013-02-13 20:11:00,
2013-02-13 14:21:00,55.0,28.0,29.83,South,187,3.0,-999.0,35,-99.99,,,-99.99,,2013-02-13 20:21:00,
2013-02-13 14:31:00,56.0,27.0,29.82,SW,226,1.0,-999.0,33,-99.99,,,-99.99,,2013-02-13 20:31:00,
2013-02-13 14:42:00,56.0,27.0,29.82,SSW,202,3.0,-999.0,32,-99.99,,,-99.99,,2013-02-13 20:42:00,
2013-02-13 14:52:00,56.0,27.0,29.82,SSW,202,3.0,-999.0,32,-99.99,,,-99.99,,2013-02-13 20:52:00,
2013-02-13 15:01:00,56.0,27.0,29.81,SE,146,2.0,-999.0,33,-99.99,,,-99.99,,2013-02-13 21:01:00,
2013-02-13 15:11:00,56.0,27.0,29.81,SE,146,2.0,-999.0,33,-99.99,,,-99.99,,2013-02-13 21:11:00,
2013-02-13 15:21:00,56.0,27.0,29.81,South,184,3.0,-999.0,33,-99.99,,,-99.99,,2013-02-13 21:21:00,
2013-02-13 15:31:00,56.0,27.0,29.81,South,181,3.0,-999.0,33,-99.99,,,-99.99,,2013-02-13 21:31:00,
2013-02-13 15:42:00,56.0,27.0,29.81,South,183,4.0,-999.0,33,-99.99,,,-99.99,,2013-02-13 21:42:00,
2013-02-13 15:52:00,56.0,27.0,29.81,South,183,4.0,-999.0,33,-99.99,,,-99.99,,2013-02-13 21:52:00,
2013-02-13 16:02:00,55.0,27.0,29.81,South,184,4.0,-999.0,34,-99.99,,,-99.99,,2013-02-13 22:02:00,
2013-02-13 16:11:00,55.0,28.0,29.81,South,188,2.0,-999.0,35,-99.99,,,-99.99,,2013-02-13 22:11:00,
2013-02-13 16:21:00,55.0,28.0,29.81,South,188,2.0,-999.0,35,-99.99,,,-99.99,,2013-02-13 22:21:00,
2013-02-13 16:31:00,55.0,29.0,29.81,South,183,0.0,-999.0,36,-99.99,,,-99.99,,2013-02-13 22:31:00,
2013-02-13 16:42:00,55.0,29.0,29.81,South,183,0.0,-999.0,36,-99.99,,,-99.99,,2013-02-13 22:42:00,
2013-02-13 16:52:00,54.0,28.0,29.80,WSW,248,0.0,-999.0,36,-99.99,,,-99.99,,2013-02-13 22:52:00,
2013-02-13 17:01:00,54.0,28.0,29.80,SSW,198,1.0,-999.0,36,-99.99,,,-99.99,,2013-02-13 23:01:00,
2013-02-13 17:11:00,53.0,27.0,29.80,NNE,30,0.0,-999.0,36,-99.99,,,-99.99,,2013-02-13 23:11:00,
2013-02-13 17:21:00,53.0,27.0,29.80,NNE,30,0.0,-999.0,36,-99.99,,,-99.99,,2013-02-13 23:21:00,
2013-02-13 17:32:00,52.0,27.0,29.81,SW,215,0.0,-999.0,38,-99.99,,,-99.99,,2013-02-13 23:32:00,
2013-02-13 17:42:00,52.0,27.0,29.81,SW,215,0.0,-999.0,38,-99.99,,,-99.99,,2013-02-13 23:42:00,
2013-02-13 17:52:00,50.0,27.0,29.81,SSW,212,0.0,-999.0,41,-99.99,,,-99.99,,2013-02-13 23:52:00,
2013-02-13 18:01:00,49.0,26.0,29.81,SSW,213,0.0,-999.0,41,-99.99,,,-99.99,,2013-02-14 00:01:00,
2013-02-13 18:11:00,49.0,26.0,29.81,SSW,213,0.0,-999.0,41,-99.99,,,-99.99,,2013-02-14 00:11:00,
2013-02-13 18:21:00,49.0,26.0,29.81,SSW,213,0.0,-999.0,41,-99.99,,,-99.99,,2013-02-14 00:21:00,
2013-02-13 18:32:00,46.0,26.0,29.81,SSW,213,0.0,-999.0,45,-99.99,,,-99.99,,2013-02-14 00:32:00,
2013-02-13 18:42:00,46.0,26.0,29.81,SSW,213,0.0,-999.0,45,-99.99,,,-99.99,,2013-02-14 00:42:00,
2013-02-13 18:52:00,46.0,26.0,29.81,SSW,213,0.0,-999.0,45,-99.99,,,-99.99,,2013-02-14 00:52:00,
2013-02-13 19:01:00,42.0,25.0,29.82,SSW,213,0.0,-999.0,50,-99.99,,,-99.99,,2013-02-14 01:01:00,
2013-02-13 19:21:00,41.0,25.0,29.82,SSW,213,0.0,-999.0,53,-99.99,,,-99.99,,2013-02-14 01:21:00,
2013-02-13 19:31:00,41.0,25.0,29.82,SSW,213,0.0,-999.0,53,-99.99,,,-99.99,,2013-02-14 01:31:00,
2013-02-13 19:41:00,41.0,25.0,29.82,SSW,213,0.0,-999.0,53,-99.99,,,-99.99,,2013-02-14 01:41:00,
2013-02-13 19:52:00,40.0,25.0,29.82,SSW,213,0.0,-999.0,54,-99.99,,,-99.99,,2013-02-14 01:52:00,
2013-02-13 20:01:00,40.0,25.0,29.82,SSW,213,0.0,-999.0,54,-99.99,,,-99.99,,2013-02-14 02:01:00,
2013-02-13 20:11:00,38.0,23.0,29.82,SSW,213,0.0,-999.0,55,-99.99,,,-99.99,,2013-02-14 02:11:00,
2013-02-13 20:21:00,38.0,23.0,29.82,SSW,213,0.0,-999.0,55,-99.99,,,-99.99,,2013-02-14 02:21:00,
2013-02-13 20:31:00,38.0,25.0,29.81,SSW,213,0.0,-999.0,59,-99.99,,,-99.99,,2013-02-14 02:31:00,
2013-02-13 20:41:00,38.0,25.0,29.81,SSW,213,0.0,-999.0,59,-99.99,,,-99.99,,2013-02-14 02:41:00,
2013-02-13 20:52:00,38.0,25.0,29.81,SSW,213,0.0,-999.0,59,-99.99,,,-99.99,,2013-02-14 02:52:00,
2013-02-13 21:02:00,38.0,25.0,29.81,SSW,213,0.0,-999.0,59,-99.99,,,-99.99,,2013-02-14 03:02:00,
2013-02-13 21:11:00,36.0,24.0,29.81,SSW,213,0.0,-999.0,62,-99.99,,,-99.99,,2013-02-14 03:11:00,
2013-02-13 21:21:00,36.0,24.0,29.81,SSW,213,0.0,-999.0,62,-99.99,,,-99.99,,2013-02-14 03:21:00,
2013-02-13 21:31:00,36.0,25.0,29.81,SSW,213,0.0,-999.0,63,-99.99,,,-99.99,,2013-02-14 03:31:00,
2013-02-13 21:42:00,36.0,25.0,29.81,SSW,213,0.0,-999.0,63,-99.99,,,-99.99,,2013-02-14 03:42:00,
2013-02-13 21:52:00,36.0,24.0,29.81,SSW,213,0.0,-999.0,62,-99.99,,,-99.99,,2013-02-14 03:52:00,
2013-02-13 22:01:00,35.0,23.0,29.81,SSW,213,0.0,-999.0,62,-99.99,,,-99.99,,2013-02-14 04:01:00,
2013-02-13 22:11:00,35.0,23.0,29.81,SSW,213,0.0,-999.0,62,-99.99,,,-99.99,,2013-02-14 04:11:00,
2013-02-13 22:21:00,35.0,23.0,29.81,SSW,213,0.0,-999.0,62,-99.99,,,-99.99,,2013-02-14 04:21:00,
2013-02-13 22:31:00,35.0,24.0,29.81,SSW,213,0.0,-999.0,65,-99.99,,,-99.99,,2013-02-14 04:31:00,
2013-02-13 22:41:00,35.0,24.0,29.81,SSW,213,0.0,-999.0,65,-99.99,,,-99.99,,2013-02-14 04:41:00,
2013-02-13 22:52:00,35.0,24.0,29.81,SSW,213,0.0,-999.0,65,-99.99,,,-99.99,,2013-02-14 04:52:00,
2013-02-13 23:02:00,34.0,24.0,29.82,SSW,213,0.0,-999.0,66,-99.99,,,-99.99,,2013-02-14 05:02:00,
2013-02-13 23:11:00,34.0,24.0,29.82,SSW,213,0.0,-999.0,66,-99.99,,,-99.99,,2013-02-14 05:11:00,
2013-02-13 23:21:00,34.0,24.0,29.82,SSW,213,0.0,-999.0,67,-99.99,,,-99.99,,2013-02-14 05:21:00,
2013-02-13 23:31:00,35.0,26.0,29.82,SSW,213,0.0,-999.0,68,-99.99,,,-99.99,,2013-02-14 05:31:00,
2013-02-13 23:41:00,35.0,26.0,29.82,SSW,213,0.0,-999.0,68,-99.99,,,-99.99,,2013-02-14 05:41:00,
2013-02-13 23:52:00,36.0,25.0,29.83,SSW,213,0.0,-999.0,63,-99.99,,,-99.99,,2013-02-14 05:52:00,